Location: Spaichingen
(48.0400°N, 8.4300°E)
Time: 20:18:04
(UTC+01:00)

ISS - Pass Details

Date: 25 January 2019
Orbit: 403 x 411 km, 51.6° (Epoch: 21 February)

Event Time Altitude Azimuth Distance (km) Brightness Sun altitude
Rises 20:03:01 0° 259° (W) 2,333 1.2 -27.9°
Reaches altitude 10° 20:05:07 10° 263° (W) 1,475 -0.1 -28.3°
Enters shadow 20:06:08 18° 268° (W) 1,071 -0.9 -28.5°
